Regional Weather Roundup
Issued by NWS

Current Version | Previous Version | Text Only | Print | Product List | Glossary On
Versions: 1 2 3 4 5 6 7 8 9 10 11 12 13 14 15 16 17 18 19 20 21 22 23 24 25 26 27 28 29 30 31 32 33 34 35 36 37 38 39 40 41 42 43 44 45 46 47 48 49 50
000
ASUS44 KLIX 310511
RWRLA
LOUISIANA WEATHER ROUNDUP
NATIONAL WEATHER SERVICE NEW ORLEANS LA
1200 AM CDT TUE MAY 31 2016

NOTE: "FAIR" INDICATES FEW OR NO CLOUDS BELOW 12,000 FEET WITH NO
      SIGNIFICANT WEATHER AND/OR OBSTRUCTIONS TO VISIBILITY.
      SKY/WX - SKY CONDITION AND SIGNIFICANT WEATHER.
      TMP - AIR TEMPERATURE.    DP   - DEWPOINT TEMPERATURE.
      RH  - RELATIVE HUMIDITY.  PRES - PRESSURE.
      HX  - HEAT INDEX.         WCI  - WIND CHILL INDEX.

*  THESE STATIONS ARE NOT NWS OR FAA STATIONS AND ARE NOT UNDER
   NWS QUALITY CONTROL.

LAZ040-048-061>063-065-066-069-310600-
SOUTHEAST LOUISIANA

CITY           SKY/WX    TMP DP  RH WIND       PRES   REMARKS
N.O. AUDUBON     N/A     76  72  88 MISG        N/A
N.O. INTL ARPT PTCLDY    76  70  82 S3        29.96S
N.O. LAKEFRONT PTCLDY    80  69  69 SW7       29.96F
N.O. DOWNTOWN* FAIR      79  70  74 S5        29.96F
RESERVE*       FAIR      75  72  89 CALM      29.96S
SLIDELL        CLOUDY    74  72  93 CALM      29.95F
BATON ROUGE    CLEAR     72  67  84 W3        29.96F
BOOTHVILLE     PTCLDY    77  72  84 W5        29.97F
BELLE CHASSE   CLEAR     71  69  93 CALM      29.95F
BOGALUSA*      FAIR      74  69  83 CALM      29.97F
GALLIANO*      CLEAR     69  67  94 CALM      29.97S
NEW ROADS*     FAIR      71  67  87 CALM      29.97S
GONZALES*      FAIR      72  72  99 CALM      29.96R
HAMMOND*       PTCLDY    72  68  88 CALM      29.95S
HOUMA*         CLEAR     72  71  98 CALM      29.97S
PORT FOURCHON* CLEAR     81  70  69 S5        29.96F

$$

LAZ041-044-053-054-310600-
SOUTHWEST LOUISIANA

CITY           SKY/WX    TMP DP  RH WIND       PRES   REMARKS
LAKE CHARLES   CLOUDY    73  71  93 CALM      29.96F
LAFAYETTE      CLEAR     77  70  79 W5        29.97S
PATTERSON      CLEAR     73  71  93 CALM      29.97F
SALT POINT       N/A     77  73  87 CALM      29.95S
NEW IBERIA     CLEAR     73  70  90 W6        29.97S
CHENAULT AIRPK NOT AVBL

$$

LAZ027-028-310600-
CENTRAL LOUISIANA

CITY           SKY/WX    TMP DP  RH WIND       PRES   REMARKS
FORT POLK      PTCLDY    75  71  86 S6        29.95F
ALEXANDRIA INT CLEAR     73  69  87 S5        29.94S
ALEXANDRIA     CLEAR     72  68  87 S6        29.96S

$$

LAZ001-002-310600-
NORTHWEST LOUISIANA

CITY           SKY/WX    TMP DP  RH WIND       PRES   REMARKS
SHREVEPORT     MOCLDY    74  71  91 E5        29.92F
BARKSDALE AFB  CLEAR     71  71  98 SE2       29.93F
DTN SHREVEPORT MOCLDY    74  69  85 SE3       29.93F

$$

LAZ014-016-310600-
NORTHEAST LOUISIANA

CITY           SKY/WX    TMP DP  RH WIND       PRES   REMARKS
MONROE         CLOUDY    74  71  91 SE3       29.95F
TALLULAH       CLEAR     73  67  81 CALM      29.95F

$$




USA.gov is the U.S. government's official web portal to all federal, state and local government web resources and services.